Sparta, WI (54656)

10:12 PM CDT on July 30, 2016 (GMT -0500)
Sparta-Fort McCoy | | Change Station

Elev 837 ft 43.96 °N, 90.74 °W | Updated 17 minutes ago

Scattered Clouds
Scattered Clouds
68 °F
Feels Like 68 °F
N
4
Wind Variable Wind from East

Today
High -- | Low -- °F
--% Chance of Precip.
Yesterday
High -- | Low -- °F
Precip. -- in
Pressure 30.04 in
Visibility 10.0 miles
Clouds Scattered Clouds 8500 ft
Scattered Clouds 12000 ft
Dew Point 65 °F
Humidity 90%
Rainfall 0.00 in
Snow Depth Not available.
5:49 AM 8:28 PM
Waning Crescent, 9% visible
METAR KCMY 310255Z AUTO 10003KT 10SM SCT085 SCT120 20/18 A3004 RMK AO2 T01970181
Pressure 30.04 in
Visibility 10.0 miles
Clouds Scattered Clouds 8500 ft
Scattered Clouds 12000 ft
Dew Point 65 °F
Humidity 90%
Rainfall 0.00 in
Snow Depth Not available.
5:49 AM 8:28 PM
Waning Crescent, 9% visible
METAR KCMY 310255Z AUTO 10003KT 10SM SCT085 SCT120 20/18 A3004 RMK AO2 T01970181

10-Day Weather Forecast

Almanac

Astronomy

Jul. 30, 2016 Rise Set
Actual Time
Civil Twilight
Nautical Twilight
Astronomical Twilight
Moon
Length of Visible Light
Length of Day
Tomorrow will be .
, % of the Moon is Illuminated

Today's Extremes

State Highs State Lows

Community

WunderPhotos

Upload Photos

1,928,729 photos uploaded!

WunderBlog® & News

Nearby

Air Quality

  Air Quality AQ Index Pollutant
Not available.

Snow Depth

Station Depth Elevation

Earthquake Activity

City Distance Mag. Time & Date
Minimum magnitude displayed is 2.5.

Coastal Water Temperatures

Place Temperature

Stations

Nearby Weather Stations

Station Location Temp. Windchill Dew Point Humidity Wind Precip. Elev Updated Type
                   

Watches & Warnings

There are currently no watches in effect.